Duluth International Airport
KDLH : now visible

Airfield :











YOU CAN JOIN US ON...

 
LOGIN :

Register | Disclaimer

   EN    FR    IT 

 









Legend :    VFR   Marginal VFR   IFR   Intensive IFR   Very Intensive IFR
Visi :
Ceiling :
>= 8 km
>= 3000ft
5 to 8 km
1000 to 3000 ft
1500m to 5 km
500 to 1000 ft
800 to 1500m
200 to 500 ft
< 800m
< 200 ft
Symbols :   Thunderstorms  Fog  Heavy snow  Heavy precipitations  Wind > 20 kt






- Airport Elevation : 1428 ft
- IATA code : DLH


KDLH - Duluth International

CURRENT METAR :
  • 181955Z 11010KT 10SM FEW070 23/11 A3009 RMK AO2 SLP187 T02330106

EXPIRED METARs :
  • 181855Z 13010KT 10SM FEW070 23/11 A3010 RMK AO2 SLP191 T02280106
  • 181755Z 10010G17KT 10SM FEW070 22/10 A3012 RMK AO2 SLP198 T02220100 10222 20139 58014

TAF KDLH
Valid from the 18 at 18:00 until the 19 at 18:00 UTC


181745Z 1818/1918 14010G17KT P6SM FEW080 FEW250
FM190300 11006KT P6SM BKN027
FM190500 12006KT 5SM BR VCSH BKN008
FM191500 15006KT 2SM BR VCSH OVC004
KZMP FIR / North America



MET'MAP, your aeronautical weather chart ! - Copyright ORBIFLY December 2007 - Disclaimer

ORBIFLY MET'MAP TEAM :

Programming & Development : Alexandra Zaïnal
Concept & original design : Baudouin d'Aumeries
Assistance for programming : Marc-Olivier Méhu
Technical & hardware support : Manuel Goepfert

Contact : metmap@orbifly.com




SOURCES & CREDITS :

   NOAA       Earth
Advisory